Location: Lafig�re
(44.4503°N, 4.0357°E)
Time: 04:14:45
(UTC+00:00)

Courier 1B - Pass Details

Date: 21 January 2021
Orbit: 962 x 1209 km, 28.3° (Epoch: 03 March)

Event Time Altitude Azimuth Distance (km) Brightness Sun altitude
Exits shadow 03:39:22 12° 155° (SSE) 2,624 9.9 -37.8°
Drops below altitude 10° 03:39:59 10° 151° (SSE) 2,754 10.0 -37.7°
Sets 03:43:43 0° 132° (SE) 3,745 11.0 -37.0°
